Weather History for Lancaster, OH

Change the Weather History Date:

Saturday, March 9, 2013

  Actual Average Record
Temperature  
Mean Temperature 40 °F -  
Max Temperature 57 °F 48 °F 79 °F (1974)
Min Temperature 23 °F 23 °F -7 °F (1984)
Degree Days  
Heating Degree Days 25    
Moisture  
Dew Point 27 °F    
Average Humidity 61    
Maximum Humidity 89    
Minimum Humidity 31    
Precipitation  
Precipitation 0.00 in - - ()
Sea Level Pressure  
Sea Level Pressure 30.28 in    
Wind  
Wind Speed 4 mph (SE)    
Max Wind Speed 12 mph    
Max Gust Speed -    
Visibility 10 miles    
Events      
Averages and records for this station are not official NWS values.
T = Trace of Precipitation, MM = Missing Value Source: NWS Daily Summary

Daily Weather History Graph

Daily Weather History Graph

Search for Another Location

Airport:

Trip Planner

Search our weather history database for the weather conditions in past years. The results will help you decide how hot, cold, wet, or windy it might be!

Date:

Astronomy

Mar. 09, 2013 Rise Set
Actual Time 6:51 AM EST 6:31 PM EST
Civil Twilight 6:24 AM EST 6:58 PM EST
Nautical Twilight 5:53 AM EST 7:29 PM EST
Astronomical Twilight 5:21 AM EST 8:01 PM EST
Moon 5:14 AM EST (3/9) 4:32 PM EST (3/9)
Length of Visible Light 12h 34m
Length of Day
11h 40m
Waning Crescent, 5% of the Moon is Illuminated
Mar 9
Waning Crescent
Mar 11
New
Mar 19
First Quarter
Mar 27
Full
Apr 3
Last Quarter

Hourly Weather History & Observations

Time (EST) Temp. Windchill Dew Point Humidity Pressure Visibility Wind Dir Wind Speed Gust Speed Precip Events Conditions
12:53 AM 33.1 °F 27.7 °F 26.1 °F 75% 30.41 in 10.0 mi ENE 5.8 mph - N/A   Clear
1:53 AM 30.0 °F - 24.1 °F 79% 30.40 in 10.0 mi Calm Calm - N/A   Clear
2:53 AM 28.9 °F - 24.1 °F 82% 30.39 in 10.0 mi Calm Calm - N/A   Clear
3:53 AM 26.1 °F - 21.9 °F 84% 30.39 in 8.0 mi Calm Calm - N/A   Clear
4:53 AM 25.0 °F - 21.0 °F 85% 30.38 in 7.0 mi Calm Calm - N/A   Clear
5:53 AM 23.0 °F - 19.9 °F 88% 30.38 in 8.0 mi Calm Calm - N/A   Clear
7:53 AM 27.0 °F - 24.1 °F 89% 30.39 in 5.0 mi Calm Calm - N/A   Clear
8:53 AM 34.0 °F 28.8 °F 26.1 °F 73% 30.38 in 10.0 mi SSE 5.8 mph - N/A   Clear
9:53 AM 37.0 °F 31.0 °F 27.0 °F 67% 30.36 in 10.0 mi SE 8.1 mph - N/A   Clear
10:53 AM 42.1 °F 35.7 °F 28.0 °F 58% 30.34 in 10.0 mi ESE 11.5 mph - N/A   Clear
11:53 AM 46.0 °F 41.0 °F 27.0 °F 47% 30.33 in 10.0 mi SE 10.4 mph - N/A   Clear
12:53 PM 50.0 °F - 27.0 °F 41% 30.29 in 10.0 mi SE 9.2 mph - N/A   Clear
1:53 PM 52.0 °F - 27.0 °F 38% 30.26 in 10.0 mi SE 8.1 mph - N/A   Clear
2:53 PM 55.9 °F - 27.0 °F 33% 30.23 in 10.0 mi SSE 3.5 mph - N/A   Clear
3:53 PM 57.9 °F - 27.0 °F 31% 30.20 in 10.0 mi SSE 11.5 mph - N/A   Clear
4:53 PM 57.9 °F - 27.0 °F 31% 30.17 in 10.0 mi South 9.2 mph - N/A   Clear
5:53 PM 55.0 °F - 27.0 °F 34% 30.17 in 10.0 mi South 5.8 mph - N/A   Clear
6:53 PM 48.0 °F - 32.0 °F 54% 30.17 in 10.0 mi Calm Calm - N/A   Clear
7:53 PM 44.1 °F - 35.1 °F 71% 30.17 in 10.0 mi Calm Calm - N/A   Clear
8:53 PM 42.1 °F - 33.1 °F 70% 30.15 in 10.0 mi Calm Calm - N/A   Clear
9:53 PM 43.0 °F - 34.0 °F 71% 30.15 in 10.0 mi Calm Calm - N/A   Mostly Cloudy
10:53 PM 46.9 °F - 30.9 °F 54% 30.13 in 10.0 mi South 6.9 mph - N/A   Mostly Cloudy
11:53 PM 48.0 °F - 28.0 °F 46% 30.10 in 10.0 mi SSE 9.2 mph - N/A   Mostly Cloudy